CAPE
0 0 0 0 0 0 0 0 0 0 0 0 0 0 0 0 0 0 0 16 10 363 1368 1329 1126 702 165 0 0 0 0 1 209 377 435 460 389 377 281 124 139 535 590 496 195 87 32 0 0
0 0 0 0 0 0 0 0 0 0 0 0 0 0 0 0 0 0 0 19 171 954 1388 1207 1126 644 47 0 0 0 0 0 1 114 223 293 279 200 76 16 326 515 580 472 196 102 27 0 0
0 0 0 0 0 0 0 0 0 0 0 0 0 0 0 0 16 0 45 115 1184 1357 1373 1287 1274 663 71 0 0 0 0 0 0 1 70 125 94 56 21 4 323 472 677 380 272 139 18 0 0
0 0 0 0 0 0 0 0 0 0 0 0 0 0 0 0 42 171 173 224 893 1378 1384 1315 1320 694 89 3 0 0 0 0 0 0 0 0 0 16 0 134 360 580 630 456 234 123 0 0 0
0 0 0 0 0 0 0 0 0 0 0 0 0 0 0 410 408 1013 527 580 659 1252 1394 1460 1445 746 151 18 0 0 0 0 0 0 0 0 0 0 34 203 346 421 327 262 125 0 0 0 0
0 0 0 0 0 0 0 0 0 0 0 0 0 0 0 0 0 400 1153 1059 1182 1205 1558 1458 1622 935 249 61 0 0 0 0 0 0 0 0 0 7 64 190 279 237 198 45 0 0 0 0 0
0 0 0 0 0 0 0 0 0 0 0 0 0 0 0 0 129 774 893 1207 1440 1573 1501 1679 1716 1126 385 167 7 0 0 0 0 0 0 0 5 8 92 153 159 116 50 0 0 0 0 0 0
0 0 0 0 0 0 0 0 0 0 0 0 0 0 0 0 687 776 743 918 1359 1502 1489 1526 1470 1207 545 447 146 0 0 0 0 0 0 6 70 198 270 182 165 92 0 0 0 0 0 0 0
0 0 0 0 0 0 0 0 0 0 0 0 0 0 0 0 263 337 381 699 1069 1341 1373 1387 1248 1096 650 441 433 165 12 0 0 56 12 52 230 313 304 99 77 23 7 0 0 0 0 0 0
0 0 0 0 0 0 0 0 0 0 0 0 0 0 0 0 0 89 128 51 219 886 897 997 999 991 650 519 602 412 262 175 68 100 174 97 162 257 299 68 43 24 5 7 1 0 0 0 0
0 0 0 0 0 0 0 0 0 0 0 0 0 0 0 0 0 0 0 8 0 0 970 988 846 857 653 542 482 389 361 190 71 65 128 95 92 287 214 48 49 55 62 30 0 0 0 0 0
0 0 0 0 0 0 0 0 0 0 0 0 0 0 0 0 0 0 0 0 0 0 24 895 745 615 536 540 522 421 224 110 44 88 65 4 17 49 39 6 6 18 31 19 0 0 0 0 0
0 0 0 0 0 0 0 0 0 0 0 0 0 0 0 0 0 0 0 0 0 0 0 195 838 582 478 575 510 425 212 92 61 45 22 8 5 4 3 0 0 3 39 7 0 0 0 0 0
0 0 0 0 0 0 0 0 0 0 0 0 0 0 0 0 0 0 0 0 0 0 5 40 739 693 613 578 529 385 184 64 27 18 8 8 1 0 0 0 0 34 49 20 0 0 0 0 0
0 0 0 0 0 0 0 0 0 0 0 0 0 0 0 0 0 0 0 0 0 0 0 4 713 750 513 673 503 354 142 62 17 16 9 8 0 0 0 23 65 58 53 43 0 32 0 0 0
0 0 0 0 0 0 0 0 0 0 0 0 0 0 0 0 0 0 0 0 0 0 0 0 136 762 815 614 446 257 137 53 32 21 9 0 0 2 0 5 14 23 7 4 103 20 0 0 0
0 0 0 0 0 0 0 0 0 0 0 0 0 0 0 0 0 0 0 0 0 0 0 0 74 592 776 532 304 117 83 59 37 11 0 0 0 3 15 39 74 97 61 85 65 31 0 0 0
0 0 0 0 0 0 0 0 0 0 0 0 0 0 0 0 0 0 0 0 0 0 9 57 163 468 534 425 263 165 162 50 26 0 0 0 0 6 44 64 147 115 121 79 53 34 0 0 0
0 0 0 0 0 0 0 0 0 0 0 0 0 0 0 0 0 0 0 0 0 237 133 123 249 307 465 464 220 204 103 26 9 3 1 0 0 108 176 213 201 86 80 68 36 0 0 0 0
0 0 0 0 0 0 0 0 0 0 0 0 0 0 0 0 0 0 0 0 0 85 402 196 165 170 310 458 233 145 38 17 21 65 81 17 65 290 249 212 185 90 44 22 8 0 0 0 0
0 0 0 0 0 0 0 0 0 0 0 0 0 0 0 0 0 0 0 0 0 161 402 519 300 211 417 443 283 254 175 155 176 275 249 307 389 352 264 225 71 0 0 0 0 0 0 0 0
0 0 0 0 0 0 0 0 0 0 0 0 0 0 0 0 0 0 0 0 0 75 648 725 611 423 350 315 479 414 344 359 388 494 392 538 457 382 242 62 0 0 0 0 0 0 0 0 0
0 0 0 0 0 0 0 0 0 0 0 0 0 0 0 0 0 0 0 0 0 0 269 993 760 454 323 444 737 675 688 673 567 449 324 324 253 120 1 14 0 0 0 0 0 0 0 0 0
0 0 0 0 0 0 0 0 0 0 0 0 0 0 0 0 0 0 0 0 0 0 153 689 975 564 511 448 806 866 773 752 589 380 273 235 90 1 4 0 0 0 0 0 0 0 0 0 0
0 0 0 0 0 0 0 0 0 0 0 0 0 0 0 0 0 0 0 0 0 0 0 473 901 682 587 649 652 969 898 686 458 308 215 153 4 2 1 0 0 0 0 0 0 0 0 0 0
0 0 0 0 0 0 0 0 0 0 0 0 0 0 0 0 0 0 0 0 0 0 0 181 640 757 665 770 817 891 715 456 336 312 234 20 61 1 0 0 0 0 0 0 0 0 0 0 0
0 0 0 0 0 0 0 0 0 0 0 0 0 0 0 0 0 0 0 0 0 0 0 10 393 919 763 560 787 632 636 533 411 103 37 6 7 0 0 0 0 0 0 0 0 0 0 0 0
0 0 0 1 0 0 0 0 0 0 0 0 0 0 0 0 0 0 0 0 0 0 0 5 323 671 808 625 705 555 562 232 141 96 12 0 0 0 0 0 0 0 0 0 0 0 0 0 0
0 0 0 0 0 0 0 0 0 0 0 0 0 0 0 0 0 0 0 0 0 0 0 0 177 1032 768 602 666 616 397 182 64 43 0 0 0 0 0 0 0 0 0 0 0 0 0 0 0
0 0 0 0 0 0 0 0 0 0 0 0 0 0 0 0 0 0 0 0 0 0 0 0 399 1076 843 699 731 695 462 269 114 3 2 1 1 0 0 0 0 0 0 0 0 0 0 0 0
CIN
0 0 0 0 0 0 0 0 0 0 0 0 0 0 0 0 0 0 0 -648 -148 -722 -529 -429 -438 -527 -683 0 0 0 0 -76 -508 -389 -376 -286 -289 -254 -290 -375 -354 -149 -99 -118 -247 -324 -408 0 0
0 0 0 0 0 0 0 0 0 0 0 0 0 0 0 0 0 0 0 -680 -690 -556 -535 -493 -491 -548 -708 0 0 0 0 0 -155 -532 -458 -377 -363 -361 -427 -477 -249 -169 -114 -122 -239 -306 -400 0 0
0 0 0 0 0 0 0 0 0 0 0 0 0 0 0 0 -175 0 -405 -611 -520 -514 -503 -461 -440 -522 -681 0 0 0 0 0 0 -128 -574 -485 -493 -503 -509 -126 -247 -186 -102 -168 -203 -283 -399 0 0
0 0 0 0 0 0 0 0 0 0 0 0 0 0 0 0 -228 -283 -505 -448 -506 -491 -486 -454 -423 -521 -710 -794 0 0 0 0 0 0 0 0 0 -539 -15 -373 -240 -146 -125 -156 -215 -274 0 0 0
0 0 0 0 0 0 0 0 0 0 0 0 0 0 0 -237 -260 -390 -467 -559 -461 -470 -456 -431 -390 -470 -666 -813 0 0 0 0 0 0 0 0 0 0 -505 -335 -229 -199 -224 -218 -264 0 0 0 0
0 0 0 0 0 0 0 0 0 0 0 0 0 0 0 0 0 -441 -382 -450 -506 -457 -361 -385 -333 -404 -580 -669 0 0 0 0 0 0 0 0 0 -580 -457 -333 -255 -247 -271 -366 0 0 0 0 0
0 0 0 0 0 0 0 0 0 0 0 0 0 0 0 0 -430 -394 -376 -321 -408 -373 -355 -246 -227 -334 -487 -569 -633 0 0 0 0 0 0 0 -562 -537 -419 -348 -310 -307 -342 0 0 0 0 0 0
0 0 0 0 0 0 0 0 0 0 0 0 0 0 0 0 -263 -284 -330 -297 -210 -321 -285 -241 -221 -267 -402 -422 -519 -13 0 0 0 0 0 -569 -411 -334 -315 -333 -316 -330 0 0 0 0 0 0 0
0 0 0 0 0 0 0 0 0 0 0 0 0 0 0 0 -270 -266 -313 -270 -184 -154 -174 -177 -189 -236 -343 -397 -377 -454 -618 0 0 -513 -529 -482 -344 -270 -267 -391 -389 -433 -291 0 0 0 0 0 0
0 0 0 0 0 0 0 0 0 0 0 0 0 0 0 0 0 -190 -324 -437 -321 -149 -162 -117 -111 -171 -314 -336 -312 -340 -390 -420 -478 -476 -441 -445 -394 -293 -245 -374 -402 -414 -502 -274 -288 -43 0 0 0
0 0 0 0 0 0 0 0 0 0 0 0 0 0 0 0 0 0 0 -415 0 0 -126 -113 -92 -96 -171 -307 -350 -350 -319 -399 -444 -466 -415 -433 -439 -287 -286 -388 -385 -378 -340 -443 -31 0 0 0 0
0 0 0 0 0 0 0 0 0 0 0 0 0 0 0 0 0 0 0 0 0 0 -315 -87 -108 -101 -126 -164 -314 -396 -413 -430 -472 -393 -428 -595 -554 -460 -462 -590 -558 -480 -441 -455 0 0 0 0 0
0 0 0 0 0 0 0 0 0 0 0 0 0 0 0 0 0 0 0 0 0 0 0 -262 -71 -65 -108 -85 -201 -378 -495 -497 -485 -458 -504 -618 -690 -659 -408 0 0 -619 -452 -382 0 0 0 0 0
0 0 0 0 0 0 0 0 0 0 0 0 0 0 0 0 0 0 0 0 0 0 -340 -347 -85 -50 -39 -80 -102 -277 -450 -515 -558 -565 -602 -653 -722 0 0 0 -231 -509 -434 -460 0 0 0 0 0
0 0 0 0 0 0 0 0 0 0 0 0 0 0 0 0 0 0 0 0 0 0 0 -363 -108 -46 -53 -65 -111 -234 -435 -511 -568 -571 -571 -681 -29 0 0 -546 -430 -434 -418 -394 -13 -323 0 0 0
0 0 0 0 0 0 0 0 0 0 0 0 0 0 0 0 0 0 0 0 0 0 0 0 -346 -67 -61 -89 -100 -212 -416 -504 -537 -574 -624 0 0 -231 0 -569 -512 -511 -488 -208 -328 -384 0 0 0
0 0 0 0 0 0 0 0 0 0 0 0 0 0 0 0 0 0 0 0 0 0 0 0 -313 -193 -103 -160 -183 -270 -324 -454 -526 -594 0 0 0 -497 -453 -407 -375 -349 -383 -352 -369 -438 -24 0 0
0 0 0 0 0 0 0 0 0 0 0 0 0 0 0 0 0 0 0 0 0 0 -155 -329 -305 -262 -164 -151 -176 -225 -309 -400 -514 -57 0 0 0 -481 -356 -315 -274 -296 -292 -347 -393 -383 0 0 0
0 0 0 0 0 0 0 0 0 0 0 0 0 0 0 0 0 0 0 0 0 -173 -221 -282 -218 -257 -266 -250 -225 -251 -296 -418 -491 -342 -460 0 0 -318 -269 -238 -236 -277 -289 -327 -419 -1 0 0 0
0 0 0 0 0 0 0 0 0 0 0 0 0 0 0 0 0 0 0 0 0 -212 -158 -199 -240 -281 -364 -339 -297 -272 -309 -332 -336 -314 -319 -404 -358 -245 -241 -213 -238 -272 -284 -358 -287 0 0 0 0
0 0 0 0 0 0 0 0 0 0 0 0 0 0 0 0 0 0 0 0 0 -245 -217 -166 -191 -250 -292 -311 -253 -141 -200 -229 -230 -186 -207 -193 -182 -197 -206 -181 -271 -28 0 0 0 0 0 0 0
0 0 0 0 0 0 0 0 0 0 0 0 0 0 0 0 0 0 0 0 0 -270 -170 -150 -156 -177 -227 -232 -155 -74 -165 -175 -167 -110 -135 -132 -113 -136 -168 -267 0 -66 0 0 0 0 0 0 0
0 0 0 0 0 0 0 0 0 0 0 0 0 0 0 0 0 0 0 0 0 0 -275 -90 -125 -148 -205 -167 -66 -47 -101 -115 -157 -116 -118 -182 -112 -202 -309 -339 0 0 0 0 0 0 0 0 0
0 0 0 0 0 0 0 0 0 0 0 0 0 0 0 0 0 0 0 0 0 0 -233 -154 -68 -90 -116 -116 -24 -57 -88 -120 -114 -96 -96 -83 -179 -144 -237 0 0 0 0 0 0 0 0 0 0
0 0 0 0 0 0 0 0 0 0 0 0 0 0 0 0 0 0 0 0 0 0 0 -180 -110 -94 -83 -53 -76 -42 -80 -103 -140 -158 -161 -160 -48 0 0 0 0 0 0 0 0 0 0 0 0
0 0 0 0 0 0 0 0 0 0 0 0 0 0 0 0 0 0 0 0 0 0 0 -254 -182 -114 -87 -44 -68 -42 -89 -120 -185 -174 -194 -228 -174 -69 0 0 0 0 0 0 0 0 0 0 0
0 0 0 -2 0 0 0 0 0 0 0 0 0 0 0 0 0 0 0 0 0 0 0 -284 -215 -117 -98 -89 -50 -87 -107 -117 -121 -281 -320 -263 -245 0 0 0 0 0 0 0 0 0 0 0 0
0 0 0 -1 0 0 0 0 0 0 0 0 0 0 0 0 0 0 0 0 0 0 0 -317 -183 -186 -163 -131 -81 -116 -119 -154 -208 -297 -430 0 0 0 0 0 0 0 0 0 0 0 0 0 0
0 0 0 -1 0 0 0 0 0 0 0 0 0 0 0 0 0 0 0 0 0 0 0 0 -209 -137 -194 -183 -98 -76 -126 -182 -299 -334 0 0 0 0 0 0 0 0 0 0 0 0 0 0 0
0 0 0 0 0 0 0 0 0 0 0 -5 0 0 0 0 0 0 0 0 0 0 0 0 -171 -127 -198 -189 -112 -84 -117 -127 -253 -132 0 0 0 0 0 0 0 0 0 0 0 0 0 0 0
Wind_Speed
22 21 17 16 22 23 23 17 16 15 16 17 17 16 18 23 19 16 17 13 22 21 19 17 17 16 15 14 15 16 18 19 19 19 20 20 21 21 22 22 22 21 20 19 18 17 18 17 17
20 16 15 15 26 32 29 21 18 19 22 25 21 21 24 26 17 32 20 5 13 8 12 16 19 18 15 15 15 15 16 18 19 19 19 20 20 20 21 22 21 20 19 18 18 17 16 16 15
16 15 15 19 25 31 31 24 19 22 23 24 24 26 24 18 20 19 14 4 2 6 7 15 16 16 15 15 15 15 16 17 18 18 18 19 19 20 20 20 19 19 18 18 17 16 15 14 14
16 16 18 26 28 23 20 17 23 26 23 23 25 24 23 22 25 25 15 3 5 8 7 13 13 15 14 13 15 15 16 17 17 17 18 19 18 19 19 19 18 17 16 16 15 14 13 14 13
17 18 25 29 30 26 21 22 23 24 23 23 25 24 25 22 27 26 18 5 7 8 5 9 12 13 13 14 14 15 15 16 16 17 18 18 17 18 18 17 16 15 14 13 12 12 12 13 13
20 20 30 35 31 27 24 23 24 23 24 24 26 28 21 22 31 24 19 16 10 12 11 6 9 10 10 11 12 13 13 15 15 16 16 17 16 16 15 14 13 12 11 10 11 12 12 14 15
22 25 32 31 31 28 23 21 22 26 25 24 28 29 25 31 31 19 16 15 14 13 9 9 6 6 7 9 8 9 11 13 14 14 15 15 14 14 12 11 10 9 9 10 11 11 13 14 14
19 23 30 31 32 33 26 30 24 26 27 29 26 25 28 28 22 17 15 15 17 14 13 10 11 8 6 4 6 7 9 13 13 14 15 13 12 11 11 10 8 8 9 10 10 12 13 15 16
19 28 33 33 32 32 34 35 28 29 34 29 28 28 28 25 21 19 18 17 18 17 18 15 13 13 11 7 5 3 6 10 13 15 13 11 8 8 7 7 7 7 8 9 10 12 14 16 17
23 29 31 28 31 34 35 34 34 31 33 33 31 29 28 24 22 20 19 19 19 19 19 21 20 18 14 14 8 6 6 5 4 10 9 7 5 3 2 3 5 6 8 9 10 12 14 16 17
25 30 28 28 30 32 34 36 31 32 33 32 32 31 30 26 23 21 21 21 21 21 20 21 21 21 22 17 12 11 12 10 8 3 4 3 2 2 3 6 6 7 8 10 12 14 15 17 18
29 27 28 33 33 36 37 35 36 34 33 33 34 31 30 30 28 24 22 21 23 22 22 22 21 23 26 25 17 11 14 15 15 15 13 10 8 5 4 3 5 6 8 10 12 15 16 17 19
29 30 34 37 39 38 38 39 39 37 35 34 35 34 35 34 31 29 25 23 22 22 22 25 21 21 26 28 24 16 12 15 16 19 20 13 10 5 3 2 4 6 9 11 13 14 15 17 19
28 33 37 36 38 35 38 39 36 37 34 37 37 39 36 35 34 32 30 28 25 24 23 24 24 22 24 30 30 22 16 15 18 18 19 16 11 7 6 6 6 7 9 11 13 14 16 17 16
29 36 35 26 30 35 33 40 38 37 38 40 41 39 38 38 36 35 33 32 27 26 28 23 21 24 30 31 33 28 25 22 21 20 20 15 15 10 4 8 9 10 8 10 14 14 16 17 17
28 25 32 29 31 27 32 46 40 40 38 43 42 41 37 34 32 34 34 34 29 25 24 25 24 21 28 34 34 33 25 23 22 21 20 15 12 9 6 8 12 11 9 10 11 13 16 17 18
24 34 34 33 27 33 30 43 37 39 38 40 41 39 36 37 36 33 33 34 33 30 25 25 23 18 35 35 33 33 34 27 25 19 16 14 11 10 13 12 12 11 10 10 10 14 16 17 20
33 34 33 37 33 33 39 43 40 38 38 40 39 39 36 37 39 36 34 31 33 30 25 25 27 24 21 24 33 33 31 31 25 20 16 13 11 11 11 10 11 9 10 11 12 15 18 19 21
35 36 38 40 39 39 42 45 43 40 40 42 40 39 40 38 36 34 33 32 30 27 28 26 30 25 21 21 36 34 33 28 23 16 13 12 11 10 9 8 9 9 10 11 12 15 19 24 20
35 35 40 41 36 33 43 46 45 31 32 39 44 42 40 37 35 35 34 31 31 29 26 27 32 30 26 26 31 32 27 27 23 17 14 11 10 8 8 8 9 10 12 15 16 17 18 21 22
33 39 43 44 43 30 40 45 21 25 28 22 29 41 39 40 38 37 34 32 30 31 28 25 28 35 37 31 28 15 15 16 18 15 14 11 9 7 7 8 9 11 13 17 19 18 17 16 21
42 38 40 40 39 40 23 48 33 26 18 22 27 40 43 41 37 40 39 35 31 32 28 28 29 34 32 29 22 18 17 15 17 16 13 9 7 6 5 8 12 13 14 18 19 19 18 17 19
32 30 34 37 31 37 30 34 38 26 27 22 10 10 39 37 33 36 36 38 36 32 31 28 27 32 35 32 27 22 18 15 13 15 11 8 6 5 8 8 9 12 15 16 17 18 18 19 20
27 34 40 30 25 21 24 26 40 25 23 25 22 24 23 27 27 29 30 33 35 37 29 29 31 29 29 30 30 24 20 16 13 12 10 8 9 11 8 8 13 12 11 14 15 16 19 20 20
31 37 37 31 23 25 25 20 27 35 29 32 34 30 29 26 26 28 27 30 35 38 35 29 29 29 29 31 29 28 23 17 14 11 9 9 11 15 13 10 13 12 12 13 14 17 19 19 20
33 19 22 29 28 30 27 20 32 30 33 33 32 31 26 24 24 26 28 28 33 39 40 32 28 29 29 32 29 29 23 18 15 11 8 6 3 12 8 8 9 8 7 9 12 17 18 18 20
21 18 18 20 25 28 21 26 35 34 33 32 28 26 25 25 24 25 26 27 30 35 43 38 30 27 29 29 27 26 22 18 15 11 8 5 6 4 3 1 2 6 10 8 13 15 17 18 20
13 16 21 16 25 29 23 23 30 34 27 23 21 26 26 25 26 28 28 29 28 34 40 43 33 29 28 27 27 24 21 16 14 9 8 5 3 6 6 3 10 13 11 10 13 14 16 18 21
17 16 16 18 18 24 26 18 23 30 31 26 29 30 31 32 31 30 30 28 25 31 35 42 39 30 30 28 28 24 21 17 13 9 7 3 7 12 5 8 10 11 9 11 12 14 16 19 22
12 14 13 20 23 17 20 22 23 31 27 30 34 36 37 36 36 34 32 30 30 27 37 40 42 34 31 29 27 24 21 17 13 10 6 8 9 6 5 8 8 7 9 10 12 14 17 20 23
Wind_Direction
304 301 303 302 283 282 279 290 296 306 307 302 308 309 306 302 307 319 346 111 126 126 128 132 130 130 128 119 114 111 111 111 110 111 108 110 110 111 112 115 113 110 107 102 93 92 95 92 85
308 309 307 302 277 269 273 282 290 295 296 289 301 302 298 297 309 258 313 45 252 133 129 132 133 134 131 125 118 113 112 114 115 114 112 114 112 113 115 117 114 109 104 101 97 95 91 84 75
313 312 301 292 281 273 276 280 289 293 298 296 297 296 295 306 311 297 325 77 275 226 142 131 132 132 131 127 122 117 115 117 117 117 114 116 114 114 116 116 113 108 105 105 100 91 78 66 70
307 305 303 280 278 288 289 288 287 290 294 298 296 292 296 295 295 293 316 121 135 236 150 137 138 137 133 129 126 124 122 121 120 119 119 119 116 116 116 115 113 108 103 103 96 78 69 70 66
307 300 283 280 279 284 290 290 289 291 291 292 295 289 288 301 301 296 295 263 177 239 208 146 141 138 137 133 131 128 126 125 125 124 124 122 119 118 116 113 111 102 96 87 69 57 56 47 32
293 294 280 275 279 283 289 293 287 290 290 290 292 287 287 303 301 295 285 261 245 245 239 174 153 146 140 136 133 130 128 128 128 128 127 126 122 118 113 108 102 93 78 62 59 43 28 5 7
289 285 279 279 279 283 286 299 290 287 288 286 292 282 286 300 299 294 288 267 254 253 233 240 221 174 151 143 144 136 132 132 130 130 129 128 124 119 110 102 92 78 59 57 53 39 17 11 19
298 291 282 281 279 279 283 288 290 289 282 289 293 279 282 298 315 299 292 272 268 253 246 242 242 238 224 193 156 149 139 137 135 134 134 131 127 120 110 100 81 62 52 47 35 21 12 7 3
303 286 281 282 282 282 285 285 287 287 280 280 283 282 287 293 307 298 283 270 269 261 250 251 245 245 246 241 230 194 152 142 139 139 137 135 129 121 107 93 74 59 44 36 23 18 6 360 357
295 288 286 289 289 287 287 286 286 284 280 280 277 281 285 289 297 290 283 273 267 260 253 253 251 249 246 252 248 250 251 248 158 140 141 141 137 129 83 38 33 44 34 29 24 13 9 359 353
300 290 293 292 293 294 289 286 288 282 277 279 277 278 283 285 287 287 276 273 269 265 261 253 254 250 247 249 251 256 258 258 258 203 175 214 215 244 289 310 345 12 39 23 6 359 356 354 355
296 297 296 293 293 292 288 288 282 280 279 279 276 277 280 280 281 281 279 272 265 263 265 256 253 250 246 246 249 248 253 255 257 256 257 258 258 256 280 319 342 10 29 13 358 349 351 352 352
300 299 297 295 292 290 288 283 281 279 281 277 276 274 274 277 277 277 277 274 269 259 260 257 249 250 246 243 245 248 243 252 254 251 251 256 257 249 269 347 6 13 4 355 354 351 352 354 353
308 304 301 299 294 292 287 283 283 280 283 277 275 272 272 274 275 275 271 273 272 260 254 260 245 246 247 242 241 248 249 249 249 251 250 254 259 263 276 299 344 4 357 360 354 352 353 354 4
315 304 305 305 307 297 295 282 279 285 283 278 275 271 271 271 272 270 269 269 269 263 251 252 244 245 242 242 242 244 245 246 247 247 247 252 258 265 280 297 323 342 353 354 349 360 3 5 6
319 317 302 308 308 307 300 280 285 289 286 279 276 270 270 268 271 269 268 267 264 262 258 241 239 242 240 239 242 243 245 245 246 246 248 252 258 271 284 300 308 333 348 354 2 6 4 6 5
322 304 305 307 312 306 302 289 294 292 290 282 276 272 266 267 267 271 270 266 263 261 261 243 238 231 235 238 241 241 238 242 244 250 253 254 258 275 285 291 306 324 339 352 9 4 5 3 359
309 306 307 302 309 307 298 293 298 294 290 285 280 272 267 266 264 267 269 270 262 260 260 241 228 228 231 233 236 239 241 241 245 251 255 253 259 274 288 296 311 326 342 352 2 4 2 359 358
298 299 297 295 295 301 293 291 291 295 290 281 280 274 267 266 267 267 266 270 264 259 251 241 231 226 217 222 230 236 238 244 248 251 256 251 254 271 282 297 312 325 336 346 0 1 358 353 3
298 300 291 286 308 309 297 269 278 305 299 284 273 271 269 264 265 267 265 267 258 257 250 244 233 233 231 225 230 237 241 246 250 250 252 247 250 265 275 292 302 317 327 334 343 352 355 0 5
298 285 289 278 301 316 304 265 309 312 301 297 285 272 270 264 262 263 264 263 262 254 251 246 236 230 228 227 229 227 232 242 248 243 247 250 250 260 271 292 306 315 326 327 337 350 0 9 10
280 302 297 302 306 303 330 280 311 316 307 299 292 273 265 265 265 263 260 259 260 252 251 248 237 230 226 225 218 215 217 222 240 240 241 240 254 255 266 297 300 315 326 326 335 347 359 4 358
303 312 310 309 312 307 309 306 303 317 313 305 292 257 268 270 273 263 260 255 254 254 249 245 240 234 228 227 226 226 228 232 234 238 244 252 252 261 287 305 314 321 326 328 338 347 354 359 360
318 312 310 320 321 314 311 299 294 315 316 302 313 297 294 279 281 274 267 259 253 249 249 244 237 232 226 221 228 225 224 226 224 226 231 238 252 270 290 321 317 314 332 329 337 350 359 358 360
316 317 313 320 324 319 333 313 289 288 301 289 281 290 286 293 288 275 270 263 252 246 243 242 238 232 226 223 226 231 221 220 215 213 229 250 277 282 288 297 306 301 323 323 337 356 1 355 358
311 333 326 319 321 320 324 318 302 298 290 284 287 284 292 298 294 282 272 273 255 244 240 240 236 232 226 226 227 221 222 226 225 212 207 252 293 306 290 319 278 301 14 350 7 356 358 0 1
334 335 340 322 320 320 326 318 308 294 291 290 287 289 292 292 293 290 282 274 262 247 237 237 236 229 224 222 218 219 225 222 219 222 243 248 274 122 81 67 16 79 87 351 357 1 2 5 2
338 345 335 340 330 323 329 322 305 300 305 305 299 289 287 292 294 286 285 274 270 249 239 233 234 229 220 219 219 221 223 218 218 223 238 258 244 112 105 129 103 99 78 20 11 9 7 4 1
337 339 340 335 328 328 328 326 314 310 303 296 286 286 285 284 289 291 285 283 278 254 243 233 229 228 224 219 221 220 212 220 217 223 239 195 149 124 111 105 96 87 49 13 16 14 9 6 2
332 339 340 332 332 324 322 253 319 310 305 295 284 279 279 283 285 288 283 280 270 267 242 235 227 225 223 218 218 215 212 215 216 220 214 156 142 124 115 106 79 50 27 24 19 14 9 5 1